Location: Gro�wechsungen
(51.4926°N, 10.6901°E)
Time: 08:40:18
(UTC+00:00)

SPOT 3 Rocket - Pass Details

Date: 29 January 2021
Orbit: 780 x 794 km, 98.7° (Epoch: 24 February)

Event Time Altitude Azimuth Distance (km) Brightness Sun altitude
Exits shadow 18:53:53 20° 9° (N) 1,739 5.3 -26.7°
Drops below altitude 10° 18:55:41 10° 358° (N) 2,352 6.1 -27.0°
Sets 18:58:08 0° 350° (N) 3,287 7.0 -27.4°
